Regional Weather Roundup
Issued by NWS

Home | Current Version | Previous Version | Text Only | Print | Product List | Glossary On
Versions: 1 2 3 4 5 6 7 8 9 10 11 12 13 14 15 16 17 18 19 20 21 22 23 24 25 26 27 28 29 30 31 32 33 34 35 36 37 38 39 40 41 42 43 44 45 46 47 48 49 50
000
ASCA42 TJSJ 190911
RWRPR
PUERTO RICO/U.S. VIRGIN ISLANDS HOURLY WEATHER ROUNDUP
NATIONAL WEATHER SERVICE SAN JUAN PR
500 AM AST FRI SEP 19 2014

PRZ001-004-191000-
PUERTO RICO

CITY           SKY/WX    TMP DP  RH WIND       PRES   REMARKS
SAN JUAN LMM   TSTM      75  73  94 S6        29.99S
CEIBA          LGT RAIN  77  73  88 N9        30.00R
$$

PRZ006-007-191000-
U.S. VIRGIN ISLANDS

CITY           SKY/WX    TMP DP  RH WIND       PRES   REMARKS
$$

HOURLY WEATHER ROUNDUP FOR THE NEWS MEDIA

CITY           SKY/WX    TMP DP  RH WIND       PRES   REMARKS
MIAMI          MOCLDY    78  74  87 CALM      29.91R
ORLANDO        CLOUDY    78  74  87 NE3       29.92F
NEW YORK       CLEAR     59  51  75 NE13      30.20R
NEWARK         PTCLDY    57  48  72 N12       30.20R
CHICAGO        CLEAR     55  52  89 SE7       30.14S
HARTFORD       PTCLDY    52  42  69 N7        30.20R
BOSTON         PTCLDY    49  36  61 N12       30.26R
DALLAS         MOCLDY    71  66  84 SE7       29.92S
PHILADELPHIA   CLEAR     59  50  72 N7        30.19R


USA.gov is the U.S. government's official web portal to all federal, state and local government web resources and services.